RYR804 EPMO-EPKK

Flight info

Callsign RYR804
Flight time N/A
Altitude 24000
Route EVINA DCT KUKAM
Aircraft B738/M-SDE2E3FGHIRWXY/LB1

Departure

Time 2026-04-20 17:55
Airport Warsaw Modlin Airport (EPMO)

Arrival

Time N/A
Airport Kraków John Paul II International Airport (EPKK)
Time Latitude Longitude Altitude Speed Heading
2026-04-20 17:29 52.44708 20.64861 349 ft 0 kts 205°
2026-04-20 17:43 52.44725 20.64874 358 ft 3 kts 203°
2026-04-20 17:44 52.44743 20.64887 358 ft 3 kts 207°
2026-04-20 17:44 52.44753 20.64898 359 ft 2 kts 234°
2026-04-20 17:44 52.44758 20.64912 359 ft 1 kts 255°
2026-04-20 17:44 52.44760 20.64926 359 ft 1 kts 259°
2026-04-20 17:49 52.44759 20.64921 359 ft 2 kts 259°
2026-04-20 17:49 52.44753 20.64867 356 ft 8 kts 259°
2026-04-20 17:49 52.44750 20.64838 351 ft 10 kts 261°
2026-04-20 17:50 52.44747 20.64809 354 ft 12 kts 262°
2026-04-20 17:50 52.44733 20.64657 352 ft 14 kts 261°
2026-04-20 17:50 52.44717 20.64486 352 ft 17 kts 261°
2026-04-20 17:50 52.44698 20.64284 351 ft 18 kts 261°
2026-04-20 17:51 52.44679 20.64084 353 ft 18 kts 261°
2026-04-20 17:51 52.44660 20.63888 353 ft 17 kts 261°
2026-04-20 17:51 52.44642 20.63700 349 ft 16 kts 262°
2026-04-20 17:51 52.44628 20.63523 349 ft 15 kts 274°
2026-04-20 17:52 52.44687 20.63444 354 ft 1 kts 351°
2026-04-20 17:52 52.44687 20.63443 349 ft 0 kts 351°
2026-04-20 17:52 52.44719 20.63435 356 ft 6 kts 351°
2026-04-20 17:53 52.44763 20.63425 356 ft 7 kts 351°
2026-04-20 17:53 52.44821 20.63410 354 ft 9 kts 351°
2026-04-20 17:53 52.44887 20.63393 353 ft 10 kts 351°
2026-04-20 17:53 52.44949 20.63420 348 ft 10 kts 44°
2026-04-20 17:54 52.44961 20.63471 348 ft 0 kts 81°
2026-04-20 17:54 52.44969 20.63553 350 ft 32 kts 81°
2026-04-20 17:54 52.45041 20.64304 357 ft 101 kts 81°
2026-04-20 17:54 52.45176 20.65779 380 ft 154 kts 81°
2026-04-20 17:55 52.45340 20.67531 1080 ft 155 kts 80°
2026-04-20 17:55 52.45512 20.69264 1887 ft 156 kts 80°
2026-04-20 17:55 52.45696 20.71075 2468 ft 176 kts 79°
2026-04-20 17:55 52.45920 20.73218 2740 ft 203 kts 79°
2026-04-20 17:56 52.46061 20.75642 3122 ft 220 kts 96°
2026-04-20 17:56 52.45341 20.77839 3715 ft 233 kts 135°
2026-04-20 17:56 52.43810 20.79058 4119 ft 258 kts 165°
2026-04-20 17:56 52.42029 20.79171 4839 ft 270 kts 185°